RH
24 24 24 25 25 26 27 27 28 28 29 29 30 31 31 31 31 31 32 32 32 32 33 33 33 33 33 33 32 32 31 30 30 30 30 30 30 30 29 29 29 29 29 29 29 29 30 30 30 31 32 33 35 36 38 39 40 41 42 43 43 44 45 45 45 45 45 45 44 44 43 42 40 38 37 35 34 32 31 30 29 29 28 28 27 26
27 28 28 29 30 31 32 33 33 34 34 34 35 35 34 34 34 34 35 35 36 36 37 37 37 37 37 38 37 37 37 36 36 36 36 35 35 35 35 34 34 34 33 33 33 33 33 33 33 33 34 34 34 35 35 35 36 36 35 36 36 36 36 36 36 36 36 36 35 35 35 35 34 34 34 34 34 33 33 32 32 32 31 30 30 28
30 31 32 34 35 36 36 36 37 37 37 36 36 36 36 35 35 36 37 38 40 41 41 42 42 41 41 41 39 40 39 38 38 38 38 38 37 37 37 37 37 37 37 37 37 37 37 37 38 38 38 39 39 39 39 39 39 39 39 39 38 38 39 38 38 38 38 37 37 37 36 36 37 37 37 36 36 36 35 35 34 34 33 33 32 31
34 35 37 38 38 38 37 37 37 36 37 37 37 37 37 37 38 39 40 42 43 44 44 44 44 43 42 41 40 40 39 38 38 38 37 37 37 38 38 38 39 39 39 39 39 39 40 40 40 41 41 41 41 40 40 40 40 40 40 40 40 39 39 39 39 39 38 38 38 38 38 38 38 38 38 37 37 36 36 36 35 35 34 34 34 33
39 40 41 40 39 38 37 37 37 37 38 38 38 39 40 40 41 42 43 44 44 45 45 44 44 44 41 40 39 39 40 39 39 38 38 38 39 40 40 41 42 42 42 42 42 41 42 42 42 42 42 41 41 39 39 38 38 39 39 39 38 38 38 37 37 36 36 37 36 37 37 37 37 38 38 38 38 37 37 38 38 38 37 36 36 35
42 42 41 40 40 40 40 41 41 41 42 42 43 44 44 44 44 44 44 44 44 43 43 42 43 44 41 38 37 39 42 42 41 41 41 42 43 43 44 44 45 45 45 45 44 44 44 44 44 44 43 43 42 41 40 40 40 40 40 40 39 39 38 37 37 37 38 38 39 39 40 40 40 41 41 41 41 40 40 41 41 41 40 40 39 39
42 41 41 42 42 43 43 43 43 44 44 45 45 45 45 45 44 44 44 44 44 44 44 43 43 46 46 40 37 40 45 46 47 48 48 48 49 49 49 49 50 50 51 51 50 50 49 49 49 49 49 48 48 48 48 49 49 49 48 47 45 44 44 43 42 42 42 42 42 43 43 44 44 44 45 45 44 43 43 43 42 42 42 41 41 41
42 43 43 44 44 44 44 45 45 45 45 45 45 45 45 45 45 46 46 45 46 45 44 43 42 44 45 40 37 38 40 41 43 45 46 45 44 44 43 44 45 45 46 47 47 47 47 47 48 49 49 49 49 51 52 52 52 52 52 51 51 52 51 51 50 50 50 50 50 49 49 50 50 49 50 50 49 48 47 47 46 45 44 43 42 41
45 45 45 45 45 46 46 47 47 46 47 46 46 46 46 45 45 44 43 42 41 40 39 38 37 37 36 34 33 33 31 31 33 34 34 34 33 33 33 33 34 34 34 34 34 34 34 35 36 37 38 39 40 41 43 44 44 45 46 47 47 48 48 48 49 50 51 52 52 53 53 53 54 53 52 53 52 51 50 49 48 47 46 44 42 41
47 46 47 47 47 48 48 48 48 47 47 46 45 44 42 41 40 39 38 37 35 34 32 32 31 30 30 29 29 31 30 30 31 31 30 31 31 31 32 32 32 32 32 30 30 29 29 28 28 28 27 27 28 29 29 30 31 32 33 34 35 36 36 38 39 41 42 44 45 45 46 47 48 48 48 48 49 48 47 46 47 46 45 44 43 43
48 48 49 49 49 49 48 48 47 46 45 43 42 40 39 38 36 35 34 33 33 32 31 30 30 29 28 29 32 34 35 36 37 36 36 37 37 38 38 39 40 39 38 37 36 35 33 32 30 28 27 25 23 22 21 21 21 21 21 22 23 23 24 25 26 28 30 31 33 34 35 36 38 39 39 41 42 42 41 41 41 41 41 41 40 40
49 50 50 50 50 49 48 47 45 44 42 41 39 38 37 36 35 34 33 33 34 36 36 35 35 33 30 30 35 38 38 39 41 41 42 41 40 41 41 42 43 42 42 41 39 39 37 36 34 32 30 27 25 23 22 21 19 18 17 16 17 16 16 17 16 17 17 18 18 19 20 20 21 22 22 23 24 24 25 24 25 25 25 25 25 25
52 52 52 51 50 48 47 45 44 42 41 40 39 38 38 36 37 37 36 37 37 39 40 40 41 40 35 31 34 39 39 38 40 42 42 40 39 40 40 41 41 41 42 43 44 44 43 43 40 38 35 32 30 27 25 24 22 21 20 19 19 18 18 17 17 16 16 16 15 15 15 15 15 15 15 15 15 15 15 15 15 15 15 15 14 14
53 52 52 51 48 47 46 45 44 43 42 41 40 41 40 38 39 39 40 40 40 44 45 44 48 48 44 36 32 38 40 35 39 43 44 44 44 45 44 43 42 42 44 46 47 47 47 47 45 42 39 35 32 30 27 26 24 24 24 23 23 23 23 23 22 21 21 20 20 20 20 19 19 19 18 18 17 17 17 16 16 16 15 15 14 14
54 52 51 50 48 48 46 46 46 44 44 43 42 43 42 41 41 40 42 40 41 48 49 50 55 58 59 49 34 39 42 34 39 47 49 50 51 53 53 51 49 47 48 49 49 49 48 48 47 44 41 36 33 30 28 27 26 26 25 25 26 26 26 26 26 25 25 24 24 24 23 23 22 21 21 20 20 19 18 18 17 16 16 15 14 14
53 52 52 50 49 49 49 48 48 47 45 44 44 44 44 44 43 43 45 41 40 47 51 58 65 74 83 65 40 45 47 36 44 55 56 57 58 58 58 56 56 55 56 57 55 55 53 52 51 49 45 40 35 32 30 29 29 28 28 27 27 28 27 28 28 27 27 26 26 26 25 25 24 23 23 22 21 20 19 18 17 16 15 14 13 12
54 53 53 52 51 51 52 52 51 50 48 46 46 45 45 47 47 47 50 47 44 47 53 63 73 92 102 72 48 58 55 40 51 63 64 64 64 65 64 63 64 64 64 65 64 62 60 59 59 57 52 45 38 34 32 31 31 30 30 30 29 29 29 29 28 28 28 28 28 28 27 27 26 26 25 24 23 22 21 19 17 16 14 13 11 10
56 55 54 54 53 53 54 55 54 52 50 47 47 45 45 48 50 53 54 52 48 47 53 61 79 106 102 65 56 73 61 46 59 71 72 72 72 73 72 71 71 71 72 72 70 68 65 65 65 64 57 48 40 36 35 34 33 32 31 30 30 30 30 30 30 30 30 30 30 29 29 29 28 28 28 27 26 24 23 21 19 16 14 12 10 9
60 59 57 55 54 54 55 57 57 56 52 49 48 46 46 48 51 55 57 55 49 48 51 56 83 112 89 54 66 80 63 54 69 80 80 79 81 82 80 78 77 77 78 77 75 73 70 69 69 66 60 50 42 38 37 37 35 34 33 32 32 31 31 31 31 31 31 31 31 31 30 30 30 29 29 28 27 25 24 21 19 16 13 11 9 7
64 64 61 58 56 55 55 57 60 60 56 52 50 49 49 50 52 56 60 59 51 51 51 51 85 111 76 50 75 80 61 64 79 86 84 82 86 86 84 84 82 81 82 82 80 79 77 75 73 70 63 51 43 40 40 39 37 36 35 34 33 33 32 32 32 32 32 31 31 30 29 29 28 27 27 26 25 23 21 19 16 14 11 9 8 7
69 68 68 65 61 58 58 58 61 63 60 57 54 51 51 53 55 59 66 67 57 56 55 51 83 109 75 58 80 75 60 73 86 89 86 85 88 89 88 88 86 87 89 87 86 85 84 82 78 74 65 53 46 44 43 42 40 38 36 35 35 35 34 34 34 34 33 32 31 30 29 29 28 27 26 25 23 21 19 17 14 12 10 8 7 7
76 75 76 76 70 66 63 61 62 66 66 64 60 56 55 56 58 61 67 70 63 62 61 56 80 102 84 75 84 70 63 80 89 88 88 89 91 91 92 91 90 93 94 91 91 90 90 88 82 76 67 54 47 46 46 45 43 40 38 37 37 37 36 36 36 36 35 34 33 32 31 30 30 29 28 26 24 22 20 17 15 12 10 9 9 8
84 82 84 86 83 76 71 67 66 69 72 72 69 63 59 59 62 65 69 70 65 65 66 62 72 90 91 88 83 68 70 87 90 89 92 94 95 95 95 93 93 97 97 94 95 95 94 92 85 78 69 55 48 47 47 47 45 42 40 38 38 38 37 37 37 37 36 35 34 33 33 32 32 32 30 28 26 24 21 18 16 13 12 11 10 9
91 88 87 92 97 92 85 77 72 75 79 81 78 70 63 63 67 73 78 77 69 68 72 67 65 79 94 92 76 66 76 89 90 92 97 97 98 98 96 95 97 99 98 98 99 100 99 97 91 84 71 56 48 48 49 48 47 44 41 39 38 38 39 39 39 39 38 37 35 34 34 34 34 34 32 30 28 25 23 20 17 15 13 12 11 10
95 91 84 88 97 99 98 93 85 86 90 90 88 78 68 66 70 79 87 84 73 70 78 74 63 75 99 94 73 68 78 86 88 92 96 97 99 99 96 97 100 100 98 100 103 104 104 101 97 88 72 56 48 49 50 48 46 45 43 40 40 40 40 41 41 41 41 39 38 36 34 34 34 34 32 31 29 27 24 21 18 16 14 13 11 9
95 95 85 84 89 89 90 88 83 87 92 95 96 86 74 72 76 86 94 90 75 69 81 83 65 74 103 98 76 74 80 82 87 92 94 95 98 98 97 98 100 99 98 101 105 107 106 103 99 89 71 55 48 49 50 49 47 46 44 43 42 41 41 41 41 42 42 42 40 37 34 33 33 32 31 30 29 27 25 22 19 17 14 12 10 9
81 89 85 86 93 93 88 80 76 81 90 98 102 93 81 78 84 95 102 96 81 72 83 87 72 76 100 97 82 82 86 86 92 98 97 97 99 98 98 100 100 99 100 103 107 109 107 104 100 90 71 55 49 49 49 49 48 46 44 43 43 42 41 41 41 42 43 43 41 38 34 32 32 32 31 30 29 27 25 22 19 15 12 10 9 9
63 72 74 78 89 97 94 87 82 83 90 101 105 95 84 82 87 99 106 100 86 78 83 84 79 84 93 87 82 87 87 90 99 103 101 100 101 100 99 101 101 100 101 104 108 108 105 104 102 91 72 56 49 49 49 49 48 46 44 42 41 41 42 42 43 43 43 43 42 39 35 32 31 31 30 29 28 26 23 20 16 12 10 9 9 9
55 59 62 65 74 85 87 87 88 89 94 103 105 96 85 83 90 101 108 101 91 88 88 82 83 91 89 78 80 85 85 89 100 105 102 100 101 100 101 101 101 100 101 103 106 105 102 102 101 90 70 56 50 50 50 49 48 47 45 42 41 40 41 42 43 44 44 43 42 40 36 32 31 30 29 28 26 24 21 17 13 10 10 10 9 10
54 56 57 57 64 75 76 76 80 86 92 99 103 96 85 83 92 104 108 102 96 98 95 84 84 93 88 77 78 83 85 91 100 104 103 102 101 100 101 101 100 100 101 101 102 103 100 101 100 86 65 54 51 50 50 50 49 47 46 43 42 40 40 40 41 42 43 43 42 40 36 32 30 29 28 27 25 23 19 14 11 10 10 10 10 10
55 55 56 55 60 69 71 70 72 78 87 95 100 95 85 86 98 107 107 103 103 104 95 84 85 91 86 79 80 85 88 95 101 104 103 102 101 100 101 101 100 101 101 100 100 101 100 101 97 79 59 52 52 51 50 50 49 48 47 44 42 40 39 39 39 39 41 41 41 40 36 32 29 28 28 27 25 22 17 12 11 10 10 10 10 10
57 55 55 54 57 64 68 67 70 79 88 96 99 90 82 89 101 107 105 103 107 106 91 83 87 87 81 82 85 87 93 99 104 105 104 102 100 100 102 101 100 101 101 99 101 102 101 100 89 69 54 52 52 51 50 49 48 48 46 44 42 39 37 37 37 37 38 39 39 39 36 31 28 28 27 26 24 21 15 11 11 11 11 11 10 10
57 55 53 53 54 59 65 66 72 84 92 99 101 88 82 95 106 108 107 107 110 104 87 84 90 85 79 82 85 88 96 102 104 105 104 101 100 101 101 101 102 102 100 101 103 103 100 93 77 59 52 53 52 50 49 48 47 46 45 43 41 38 36 34 35 35 36 37 37 37 35 31 28 27 26 25 24 19 14 11 11 11 11 11 11 10
56 54 54 54 54 60 67 70 80 94 101 105 101 86 84 98 106 105 105 110 113 103 87 87 93 87 80 81 82 89 99 103 103 103 103 100 100 101 101 101 102 101 101 103 103 102 97 83 65 55 55 55 52 49 47 45 45 44 43 42 40 37 35 33 33 34 35 36 36 36 35 30 27 27 26 25 23 18 12 11 11 11 12 12 11 10
62 58 58 59 59 66 74 79 88 100 109 111 97 79 81 95 99 97 99 110 115 100 87 91 94 88 84 84 86 94 100 101 101 102 101 99 100 102 102 102 101 100 102 103 102 99 89 71 58 57 57 54 50 46 43 42 41 40 40 40 39 37 34 32 31 32 33 35 35 35 34 30 28 27 26 25 22 16 12 11 11 12 12 12 11 11
68 64 63 63 67 73 80 88 95 100 108 112 96 83 91 104 105 96 92 107 115 98 86 93 93 88 88 89 93 99 101 100 101 102 101 99 99 101 101 102 101 101 102 102 99 91 74 59 57 59 56 51 47 43 41 39 38 38 38 38 37 35 32 30 29 30 33 35 35 35 34 30 28 27 26 25 21 15 11 11 12 13 13 12 12 11
73 71 67 66 72 79 85 95 102 102 109 112 96 89 99 105 103 92 81 95 111 100 91 94 92 90 95 95 98 102 101 100 101 101 101 100 101 101 101 101 102 101 102 101 92 77 60 55 59 59 53 49 45 42 40 39 37 36 35 35 35 33 31 30 30 31 33 35 36 36 34 31 29 28 26 24 20 14 11 11 12 13 13 13 12 12
78 76 71 69 76 83 89 95 96 98 109 106 86 83 91 92 91 84 73 84 101 99 96 98 97 98 100 99 101 103 101 100 101 100 101 101 101 102 101 101 102 102 102 95 79 63 55 58 61 57 51 48 45 42 40 38 36 35 33 33 33 32 31 30 30 31 34 36 37 36 34 30 29 28 26 24 20 14 12 12 13 14 14 13 13 13
85 81 73 72 77 85 93 97 95 100 110 99 82 84 91 87 87 84 76 82 93 94 96 100 101 102 101 99 102 102 100 100 101 100 102 101 100 101 101 102 103 103 96 80 64 56 58 61 60 55 51 48 45 43 40 37 36 34 32 31 31 31 31 30 30 32 34 36 37 36 33 30 29 28 26 24 19 14 12 13 14 15 15 13 13 13
87 81 71 69 74 82 92 94 93 102 109 100 91 93 92 88 90 90 85 85 88 90 94 97 97 99 98 98 101 101 100 101 100 100 101 101 101 101 101 103 104 97 81 64 56 57 61 61 59 54 51 49 46 43 40 37 35 33 31 31 30 30 30 30 30 33 35 37 38 36 32 30 30 29 27 24 19 14 12 14 15 15 15 14 14 14
84 76 68 64 67 79 91 92 92 102 109 106 99 96 94 94 95 92 90 91 92 94 93 93 95 96 95 97 100 100 101 101 101 101 100 100 101 101 102 103 96 81 64 56 57 61 62 61 59 54 52 51 48 44 41 37 34 32 30 30 30 30 30 30 32 35 37 39 39 35 32 31 30 30 28 24 18 14 13 14 15 16 15 14 14 14
92 81 68 65 75 90 99 101 102 100 95 94 94 94 98 100 96 93 95 97 98 99 96 94 97 98 97 99 100 100 101 101 101 101 101 100 102 102 102 96 81 64 56 57 60 62 62 61 58 54 53 52 48 44 40 36 33 31 29 30 30 30 30 31 33 36 38 40 39 35 32 32 31 30 28 24 18 14 14 15 15 15 15 15 15 15
106 92 72 72 92 106 103 102 105 94 79 80 91 99 104 103 98 99 101 99 99 100 98 98 100 100 99 100 100 100 101 101 101 102 102 101 102 101 96 82 65 56 57 60 62 63 63 61 58 55 55 53 48 43 38 34 32 30 29 30 30 30 31 33 35 38 40 41 38 35 33 33 32 31 28 23 17 14 15 16 16 15 15 15 16 16
109 93 75 79 100 110 103 102 108 100 87 87 96 105 110 108 104 102 101 101 101 100 98 100 102 100 100 100 100 100 100 101 102 102 102 103 102 95 82 67 57 56 60 62 64 64 63 61 58 56 55 52 46 40 36 33 30 29 29 30 30 30 32 34 36 39 40 40 37 35 35 34 33 32 28 22 16 15 16 17 16 15 15 15 17 16
105 84 74 87 104 110 106 106 109 105 98 96 100 107 109 107 104 102 99 100 101 99 99 101 100 100 100 100 100 101 101 102 102 101 103 104 95 81 66 57 56 60 62 64 65 65 63 61 58 56 55 50 43 37 33 31 30 29 29 30 30 31 33 35 37 39 40 39 36 35 36 35 33 31 26 20 16 15 17 18 17 15 15 16 17 16
95 72 73 94 107 106 105 109 110 105 99 99 104 108 105 100 100 102 100 100 100 100 101 101 100 100 101 100 101 102 101 102 103 103 102 93 78 64 57 57 60 62 64 65 66 65 63 60 58 57 54 47 40 35 32 30 30 29 29 29 30 32 34 36 38 38 38 36 35 35 36 36 34 31 24 18 16 16 18 19 18 16 15 16 17 16
80 67 84 105 108 103 103 108 108 101 98 102 106 104 99 98 99 101 101 100 100 100 100 101 100 100 100 100 102 102 101 103 106 102 90 74 61 57 58 61 63 64 65 66 66 64 62 60 58 56 51 42 36 32 30 30 30 29 29 30 31 33 35 37 37 37 36 35 35 36 37 37 35 30 23 17 15 17 18 19 18 16 16 17 17 16
71 77 100 106 100 101 105 105 103 98 98 103 104 98 96 98 100 101 100 100 100 101 102 102 101 101 101 102 101 101 103 104 100 87 71 59 57 60 62 63 65 65 66 66 65 64 62 60 58 54 46 37 32 30 30 30 29 29 29 30 32 34 36 37 36 35 34 35 36 38 37 37 35 29 21 17 16 18 19 19 17 16 15 15 16 16
76 96 109 99 92 99 105 101 99 99 99 101 101 100 99 100 100 101 101 100 101 102 101 101 101 102 102 101 102 105 105 96 81 67 59 57 60 62 63 65 65 65 66 66 65 63 62 60 57 49 39 32 30 29 30 29 29 29 30 31 32 34 36 36 35 33 34 36 39 39 39 37 33 26 20 17 18 20 20 18 16 16 15 14 13 13
94 107 104 95 94 100 101 100 99 100 100 100 101 101 100 100 101 101 101 100 101 101 102 102 102 100 100 103 105 102 91 75 62 58 58 60 61 63 64 65 65 65 66 66 64 63 61 58 52 41 33 29 29 29 29 29 29 29 30 31 33 34 36 36 34 33 35 38 39 39 38 35 29 22 18 18 20 22 22 18 15 15 15 14 13 12
106 107 99 97 100 100 99 101 100 100 101 100 100 100 100 100 100 100 100 102 102 101 101 102 103 104 104 102 95 81 68 60 58 59 59 60 62 64 64 64 65 65 65 65 64 62 59 53 44 34 29 28 28 28 28 29 29 30 30 31 33 34 35 35 36 36 37 39 39 38 36 32 25 19 17 18 21 23 22 19 17 16 13 12 12 12
Wind_Speed
35 36 36 36 37 38 39 40 41 42 42 43 44 44 45 46 46 47 47 48 49 49 50 50 51 52 53 54 56 57 59 60 61 62 64 65 66 68 69 71 72 74 75 76 78 79 81 82 84 86 88 89 91 93 94 96 98 99 101 102 103 104 106 107 108 109 110 111 112 113 114 115 116 117 118 119 120 121 122 123 125 126 128 130 132 134
34 35 36 36 37 37 38 39 40 40 41 42 42 43 44 45 45 46 47 48 49 49 50 50 51 52 52 54 55 57 58 59 60 61 62 64 65 66 68 69 70 71 73 74 75 77 78 80 81 83 84 86 87 89 90 92 93 95 96 97 99 100 101 102 104 105 106 107 107 109 110 110 111 112 113 114 116 117 118 118 119 120 121 123 124 126
34 35 35 36 36 37 38 38 39 40 41 41 42 43 44 45 45 46 47 48 49 49 50 51 52 52 52 54 55 57 59 59 59 61 62 63 64 66 67 68 69 71 72 73 74 76 77 79 80 82 83 85 86 88 89 90 92 93 94 96 97 98 99 100 101 102 103 104 105 106 107 108 109 110 111 113 114 116 116 117 118 119 120 121 122 123
34 35 35 36 36 37 38 39 39 40 41 42 43 43 44 45 45 46 47 48 49 50 50 51 52 53 53 54 55 57 59 60 60 62 63 63 65 66 67 68 69 70 72 73 74 75 77 78 80 82 83 84 86 88 89 90 91 93 94 95 97 98 99 101 101 102 103 104 105 106 107 108 109 110 111 113 114 115 116 116 117 119 119 120 121 122
34 35 36 37 37 38 39 39 40 41 41 42 43 44 44 45 45 46 47 48 49 50 51 51 52 54 55 54 54 56 59 59 60 61 62 63 64 65 66 68 69 71 73 74 76 77 79 81 82 83 84 86 88 89 90 91 92 94 95 97 98 100 101 102 103 103 104 105 106 107 108 109 110 111 113 114 115 116 116 117 118 120 121 122 122 123
35 35 36 37 38 38 39 39 40 40 40 41 41 42 43 43 44 45 45 46 47 48 49 48 49 53 55 52 49 53 57 58 58 59 61 63 64 65 66 68 70 72 74 76 78 80 81 83 85 86 87 88 90 91 92 93 95 96 98 100 101 102 103 104 105 106 106 107 108 109 110 111 112 113 115 116 117 118 118 119 120 122 123 123 124 125
35 36 36 37 37 37 37 37 37 37 38 38 38 39 40 41 41 42 43 44 46 47 47 47 47 51 55 52 47 51 56 58 59 60 63 64 65 66 68 70 72 74 76 78 80 82 83 85 86 87 89 90 91 93 94 95 97 99 100 102 103 104 105 106 107 108 108 109 110 111 112 112 114 114 115 117 118 119 120 121 122 123 124 125 125 126
35 35 35 35 35 35 35 35 35 36 36 37 37 37 38 39 40 41 43 44 45 47 47 48 48 49 54 53 49 51 54 56 58 60 61 61 62 63 65 67 69 71 73 76 78 80 81 83 84 86 88 89 91 92 94 96 98 99 101 102 104 105 107 108 108 109 110 111 111 112 113 113 115 115 116 117 118 119 120 121 122 123 124 125 126 126
34 33 33 33 33 34 34 34 34 35 35 36 36 37 38 39 40 41 42 43 45 46 46 46 47 47 51 50 48 49 50 50 53 54 55 55 55 56 58 60 62 64 67 69 71 73 74 76 78 80 82 84 86 88 90 93 94 96 98 100 102 103 105 106 107 109 110 111 112 113 114 114 115 116 117 117 118 119 120 121 122 123 124 125 125 126
32 32 32 32 33 33 33 33 34 34 34 35 36 36 37 38 38 39 40 41 41 43 43 43 43 43 46 46 43 45 47 46 48 50 51 51 52 53 55 56 58 61 63 65 66 68 69 71 73 74 76 78 79 82 84 86 88 90 92 94 97 99 101 102 103 105 106 108 109 110 111 112 113 114 114 115 116 117 118 119 120 122 123 124 124 125
31 32 32 32 32 32 32 33 33 33 34 34 34 34 35 35 36 36 37 38 40 42 43 43 44 42 43 43 40 42 44 43 44 46 47 48 48 50 51 53 55 58 60 62 63 65 67 69 71 72 74 75 76 78 79 81 82 84 86 88 90 92 94 96 97 99 101 103 104 105 106 107 108 109 110 111 112 113 115 116 117 118 120 121 122 124
31 31 31 31 31 31 32 32 32 32 32 32 33 33 34 34 36 36 37 38 39 41 43 44 45 45 44 41 39 40 41 40 40 43 44 44 43 45 48 51 53 55 58 59 61 63 65 67 69 70 72 74 76 77 78 79 80 81 82 83 84 86 88 89 90 92 94 96 97 98 99 101 102 103 104 105 106 108 110 111 112 114 115 117 118 120
31 31 31 31 31 30 31 30 31 31 31 32 33 34 35 35 36 37 37 38 38 39 42 43 45 48 48 43 37 39 41 39 39 43 46 47 45 46 49 52 54 56 59 61 62 64 65 66 68 69 70 71 73 74 76 77 79 79 80 81 82 83 84 85 86 87 89 90 91 93 94 95 96 97 99 100 101 103 105 106 107 109 110 112 114 116
30 31 30 30 30 30 30 30 31 31 31 32 33 34 35 35 35 35 35 36 37 39 42 44 47 51 52 48 41 40 43 41 42 47 50 52 53 52 53 55 56 58 61 63 64 65 66 67 68 68 69 70 70 72 73 74 75 77 78 79 79 80 82 83 84 85 87 88 89 91 92 93 94 95 97 98 99 101 102 104 105 106 108 109 111 113
30 30 30 30 31 31 31 31 32 32 32 32 32 33 34 35 35 35 35 36 35 38 43 47 51 54 56 55 48 45 46 44 46 51 54 56 59 60 60 61 61 62 63 65 66 67 68 68 69 69 69 69 69 70 71 72 73 74 76 77 78 79 80 81 83 84 85 87 88 90 91 92 93 94 96 97 98 100 101 102 104 105 107 108 110 111
30 31 31 31 31 31 32 32 33 34 34 34 33 32 33 34 35 36 38 39 37 38 43 48 53 57 60 60 56 53 52 50 51 56 58 60 63 64 65 66 67 67 68 69 70 71 72 72 72 72 71 71 71 71 71 71 72 74 75 76 77 78 79 81 82 83 84 86 87 89 90 91 92 93 95 96 97 99 100 101 102 104 105 107 108 109
31 31 31 32 32 32 32 34 34 35 36 36 35 33 32 33 35 36 38 41 40 39 42 47 52 58 61 62 61 59 57 56 57 59 61 64 66 67 69 70 71 72 73 73 75 76 76 77 76 76 75 74 73 72 72 72 73 73 74 75 76 78 79 80 81 82 83 85 86 87 88 90 91 92 93 94 96 97 99 100 101 102 104 105 106 107
32 32 32 32 33 33 33 34 35 36 37 37 36 35 33 33 35 37 38 41 41 40 40 44 50 58 62 61 61 61 61 61 61 62 64 66 68 69 70 71 72 74 75 76 77 79 80 80 80 79 78 76 75 74 73 73 74 74 74 75 76 77 78 79 80 81 82 84 85 86 87 88 90 90 92 93 94 96 98 99 101 102 103 104 105 106
34 35 35 34 34 34 34 35 37 38 38 38 38 37 36 36 36 38 41 42 42 40 40 41 48 59 63 61 61 62 63 64 64 65 66 67 69 70 71 72 74 75 76 77 79 80 82 82 82 81 80 78 77 75 74 74 74 75 74 75 75 76 77 78 79 80 81 82 83 85 86 87 88 89 91 92 93 95 96 98 100 101 102 103 103 103
36 37 37 37 37 36 37 37 39 40 41 41 41 40 39 38 38 40 44 46 45 44 42 41 47 59 64 60 60 63 64 65 65 66 68 69 70 71 72 73 75 76 77 79 80 82 83 84 84 83 81 79 78 76 76 75 75 75 75 75 75 76 76 77 77 78 79 81 82 83 84 85 87 88 89 91 92 93 95 97 98 99 100 101 101 100
38 38 40 40 40 39 39 39 40 43 44 44 44 43 41 41 41 42 46 50 50 49 48 45 48 60 65 61 61 64 65 65 65 67 69 70 71 72 73 75 76 77 78 80 81 83 85 86 86 85 83 81 79 77 76 76 76 76 75 75 75 75 76 76 77 77 78 79 81 82 83 84 85 87 88 90 91 92 94 96 97 98 99 99 99 98
40 41 42 43 43 43 42 42 42 44 47 48 48 46 45 44 44 44 46 50 53 53 53 50 50 60 66 63 64 66 66 66 66 68 70 71 72 73 74 76 77 78 80 81 83 84 86 88 88 87 85 82 80 78 77 77 76 76 75 74 75 75 75 75 76 77 78 79 80 81 82 84 85 86 88 89 91 92 94 96 97 97 98 97 97 97
43 42 43 45 47 47 46 45 44 46 49 51 52 51 49 47 47 48 49 51 53 55 56 54 53 59 64 65 65 67 67 67 68 70 71 72 73 75 76 77 78 79 81 83 84 85 87 89 90 89 86 83 80 79 78 77 77 76 76 75 75 75 76 76 76 77 78 79 80 81 82 83 84 86 88 89 91 93 94 96 96 97 96 96 96 96
45 45 44 45 49 51 51 50 48 49 51 54 55 55 54 51 50 51 53 55 55 55 58 58 55 58 64 66 66 67 67 68 70 71 72 73 74 75 77 78 79 81 82 84 85 87 89 91 92 90 88 84 81 79 78 78 77 77 76 75 75 76 76 76 77 78 78 79 80 81 82 83 84 86 88 90 91 93 95 96 96 96 95 95 94 94
47 48 47 45 47 50 52 53 52 52 54 56 58 59 58 55 54 55 57 60 58 56 59 62 58 59 65 68 67 67 67 69 71 72 73 74 75 77 78 80 81 82 84 85 86 88 90 92 93 92 89 85 82 80 79 78 78 77 77 76 76 76 76 77 77 78 79 80 81 81 82 83 84 86 88 89 91 93 94 95 95 95 94 94 93 92
49 51 51 49 49 50 52 53 53 53 55 58 60 62 61 59 58 59 61 64 62 58 60 65 61 59 66 71 70 69 69 70 72 74 74 75 77 79 80 81 83 84 86 87 88 89 91 93 94 92 89 86 83 81 79 79 78 78 78 77 77 77 77 77 78 78 79 80 81 82 83 83 84 86 87 89 90 92 93 94 94 93 92 91 90 90
49 52 53 52 53 55 55 55 55 54 56 59 62 64 63 61 60 62 64 68 67 62 61 66 65 62 65 71 72 72 72 73 75 76 77 78 79 81 82 83 85 86 87 88 89 91 92 94 95 93 90 87 84 82 80 80 79 79 78 78 78 78 78 78 79 79 80 80 81 82 83 83 84 86 87 88 90 91 91 91 91 90 89 89 88 88
49 51 53 53 54 57 57 57 57 57 58 61 64 66 65 64 62 63 66 70 70 67 65 66 67 66 66 69 71 73 74 75 76 78 79 80 81 83 84 86 87 88 89 90 91 92 94 96 96 94 91 88 85 83 81 81 80 79 79 79 78 78 79 79 79 80 80 81 82 82 83 84 85 86 87 88 89 90 90 89 88 87 86 86 86 86
49 50 52 51 53 57 59 57 57 58 58 62 66 67 66 64 63 64 68 71 72 71 69 68 68 69 70 69 71 74 76 76 77 79 81 82 84 85 86 88 89 90 90 91 92 94 95 97 97 95 92 89 86 84 83 82 81 81 81 80 80 79 80 80 80 81 81 82 82 83 83 84 85 85 86 87 88 88 88 86 85 84 84 84 83 83
50 49 50 49 49 55 59 57 57 58 58 62 67 68 66 64 64 65 69 72 74 73 73 71 69 70 73 72 72 75 78 78 79 81 82 84 85 87 88 90 91 91 92 93 94 95 97 98 98 95 92 90 88 86 84 84 83 83 82 82 82 81 81 81 81 81 81 82 82 83 83 84 85 85 86 86 87 87 86 84 83 82 82 82 81 81
50 49 49 47 46 50 55 55 56 56 58 62 66 67 66 65 64 66 69 72 74 75 74 73 71 71 73 74 74 76 78 80 81 83 84 86 87 88 90 91 92 93 94 95 96 97 99 99 98 95 93 90 89 87 86 86 85 84 84 83 83 83 82 82 82 81 81 82 82 83 83 84 84 85 86 86 86 85 84 82 81 81 81 80 80 79
51 49 48 47 44 46 51 51 52 54 56 61 65 66 65 64 64 66 69 72 74 75 74 72 72 72 73 74 76 78 79 81 82 84 86 87 88 89 91 93 93 94 95 96 97 98 100 100 97 95 93 91 90 89 88 87 86 85 85 85 84 84 83 83 82 82 82 82 82 83 83 84 84 85 85 85 85 84 82 80 79 79 79 79 78 78
51 50 49 48 45 45 48 49 49 51 54 59 64 65 63 62 63 65 68 71 73 74 73 72 73 75 74 75 76 78 80 81 83 86 88 89 90 91 92 93 94 95 96 97 98 100 101 99 96 94 93 92 92 91 89 88 87 86 86 85 85 84 84 83 83 82 82 82 82 83 83 84 84 84 85 84 84 83 80 79 78 78 78 78 77 77
52 51 51 50 47 46 48 48 48 50 54 59 63 63 61 61 63 64 67 70 73 74 73 73 75 77 77 77 78 78 80 82 84 87 89 90 91 92 93 94 95 96 97 98 100 101 101 98 96 95 95 94 93 92 90 89 88 87 87 86 86 85 85 84 84 83 82 82 82 83 83 83 84 84 84 84 83 81 78 77 76 76 76 76 76 76
54 54 53 52 50 47 47 48 48 50 55 62 65 63 61 61 63 64 65 69 75 75 73 74 77 79 79 80 80 80 81 83 85 89 91 91 92 94 95 95 96 97 99 100 102 102 101 98 96 96 96 95 94 92 91 90 89 88 88 87 87 86 86 85 84 83 82 82 82 83 83 83 84 84 84 83 82 79 77 75 75 75 75 75 74 74
57 56 55 54 52 50 49 49 51 51 54 63 67 65 63 64 66 65 64 68 76 77 74 75 78 79 81 82 82 83 83 84 87 91 93 93 94 95 96 97 98 99 101 102 103 102 99 96 96 96 96 95 94 93 91 91 90 89 89 88 87 87 86 85 84 83 82 82 82 82 83 83 83 84 83 82 81 78 76 75 74 74 74 74 74 74
58 58 58 57 55 54 52 51 54 54 56 63 66 64 64 65 67 67 63 66 75 78 77 78 79 80 82 83 84 86 86 86 88 92 94 95 95 97 98 98 100 101 103 104 103 100 97 96 96 97 96 95 95 94 93 92 91 90 90 89 88 87 86 85 84 83 82 82 82 82 82 83 83 83 83 81 80 77 75 74 74 73 73 73 74 73
60 59 60 58 57 56 55 55 56 57 59 65 65 63 65 66 67 68 65 65 72 77 78 80 82 82 84 85 86 88 89 88 88 92 95 96 97 98 99 100 102 103 104 103 101 98 96 96 96 97 96 96 95 95 94 93 92 91 90 89 88 87 86 85 84 83 82 81 82 82 82 82 82 82 82 80 79 76 75 74 74 73 72 72 73 73
60 60 60 60 59 58 58 59 60 61 64 68 67 65 67 68 70 71 69 68 72 76 78 81 83 84 86 87 88 90 91 90 90 92 95 97 98 99 100 102 103 104 104 102 99 97 96 96 97 97 97 97 97 96 95 94 93 92 90 89 88 87 86 85 83 82 82 81 82 82 82 82 82 82 81 80 78 76 74 74 74 73 72 72 72 72
61 62 61 60 60 60 60 62 63 65 68 71 70 69 71 72 73 74 74 74 75 78 80 82 84 86 87 88 89 91 92 93 93 94 96 98 100 101 102 103 104 104 103 100 97 97 97 97 98 98 98 98 98 97 96 95 94 92 90 89 88 86 85 84 83 82 81 81 82 82 82 82 82 82 81 79 77 76 74 74 74 73 72 72 71 71
62 63 62 60 59 60 62 64 64 66 69 71 71 72 74 75 76 77 78 79 81 83 84 85 87 89 89 90 92 93 94 96 97 98 99 101 102 103 104 105 105 103 101 98 97 97 98 98 99 99 99 100 99 99 98 96 94 93 90 89 87 86 84 83 82 81 81 81 81 81 81 81 81 81 80 79 77 75 74 74 73 72 71 72 72 72
65 65 63 61 61 62 63 66 68 68 67 68 71 74 76 78 80 80 82 84 85 87 89 89 90 92 92 93 94 95 96 99 100 101 102 103 104 105 106 105 104 101 99 98 98 98 99 99 99 100 100 101 101 100 99 97 95 92 90 88 86 85 83 82 81 81 80 80 81 81 81 80 80 80 79 78 76 75 74 74 73 71 70 71 72 72
66 67 65 61 62 64 65 67 72 74 71 70 73 77 81 82 84 85 86 88 89 91 92 93 94 95 96 96 97 98 99 101 102 103 105 106 106 107 106 105 102 100 99 99 99 100 100 100 100 101 101 102 102 100 99 97 94 92 89 87 85 84 82 82 81 80 80 80 81 81 80 80 80 79 78 77 75 74 74 74 72 71 70 70 71 71
66 68 66 63 64 67 67 69 76 79 77 76 78 82 85 87 88 89 90 91 93 94 95 96 97 98 98 99 100 101 102 103 105 106 107 108 108 107 106 103 101 100 99 100 100 100 100 101 101 102 102 102 102 100 98 96 93 91 88 86 84 83 82 81 80 80 79 80 80 80 80 79 79 79 78 76 75 74 74 73 72 71 70 69 70 70
69 68 66 65 66 68 69 72 79 81 80 81 82 84 87 89 90 92 93 93 95 96 97 98 99 100 101 101 102 103 104 106 107 108 109 109 108 107 104 102 101 101 101 101 101 101 101 102 102 103 103 103 102 100 97 95 92 89 86 85 83 82 81 81 80 79 79 79 79 79 79 79 79 78 77 75 74 74 74 73 72 71 70 69 70 70
72 70 67 66 68 70 70 73 80 82 81 84 87 88 89 90 92 94 95 96 97 98 99 100 101 102 103 104 105 106 107 108 110 110 110 109 107 105 103 102 102 102 102 102 102 102 102 103 103 103 103 102 101 98 95 93 91 88 85 83 82 81 80 80 80 79 79 79 78 78 78 79 79 78 77 75 74 74 73 73 72 71 70 70 70 70
76 72 71 71 73 74 74 76 82 83 83 87 91 92 92 93 94 96 98 99 100 100 101 102 103 104 105 106 107 108 109 111 111 111 110 108 105 104 103 103 103 103 103 103 102 102 103 103 104 104 103 102 99 96 93 91 89 86 84 83 81 81 80 80 79 79 78 78 78 77 77 78 78 78 77 76 75 75 74 72 71 71 69 69 69 69
78 76 76 78 77 78 80 83 85 85 85 89 95 96 95 96 97 98 100 101 102 102 103 104 105 106 107 108 109 110 111 112 111 110 108 106 104 104 104 104 104 104 103 102 102 103 104 104 104 104 102 100 97 94 91 89 87 85 83 82 80 80 79 79 79 78 77 77 77 77 77 77 77 77 76 76 76 75 74 73 72 70 69 67 67 67
82 81 83 84 82 82 84 88 90 88 86 90 96 98 98 98 99 100 102 103 103 104 105 106 107 108 109 110 111 111 112 111 109 107 106 104 104 104 104 104 104 103 103 103 103 103 104 105 104 103 101 98 95 92 89 87 85 83 82 80 79 79 78 78 78 77 76 76 76 76 76 76 76 75 75 76 76 76 75 74 73 71 69 67 66 64
86 87 90 90 88 87 88 92 95 93 90 91 95 98 99 100 100 101 102 104 104 105 107 108 109 110 110 111 111 111 110 109 107 105 104 104 104 104 104 104 103 103 102 103 103 104 105 104 103 102 99 95 92 89 87 85 84 82 81 80 79 78 77 78 77 76 75 74 74 75 75 75 75 74 75 75 76 75 75 76 75 73 70 68 66 63
91 94 95 95 95 93 93 96 98 98 96 96 97 99 100 101 101 102 103 105 106 107 109 110 111 111 111 111 110 109 107 106 105 104 104 104 104 104 104 103 103 103 103 103 104 104 104 103 102 99 96 92 90 87 85 84 83 82 80 79 78 78 77 77 76 75 74 74 74 74 74 74 74 74 74 75 75 74 74 75 76 76 74 71 67 63
Wind_Direction
291 291 290 289 289 289 288 288 288 287 287 286 286 286 285 285 284 284 284 283 283 282 281 281 280 279 279 278 278 277 276 276 276 276 275 275 275 274 274 273 273 273 273 273 272 272 272 271 271 271 271 270 270 270 269 269 269 269 269 269 269 269 269 269 269 268 268 268 268 268 268 268 268 269 269 269 269 269 269 268 268 268 268 267 267 266
293 293 293 292 292 291 290 290 290 289 289 288 288 288 287 287 287 287 287 286 286 285 284 283 282 282 281 281 280 280 279 279 279 278 278 277 277 276 276 276 275 275 275 275 275 274 274 273 273 272 272 272 271 271 270 270 270 269 269 269 269 269 269 269 268 268 268 268 268 268 268 268 268 269 269 269 269 269 269 269 269 269 268 268 268 268
295 295 295 295 295 294 294 293 293 292 292 291 291 291 290 290 290 289 288 288 287 286 285 285 284 283 283 282 282 282 281 281 280 280 279 279 278 278 278 278 278 277 277 276 276 275 275 274 274 273 273 272 272 271 271 271 271 270 270 270 270 269 269 269 269 268 268 268 268 268 268 268 268 268 268 268 268 268 268 268 268 268 268 268 268 268
299 299 299 299 299 298 298 297 296 295 294 293 293 292 291 290 290 289 288 287 286 285 285 284 284 283 282 282 282 282 282 281 281 280 280 280 279 279 280 280 279 278 278 277 277 276 275 274 274 273 272 272 272 271 271 271 271 271 271 270 270 270 269 269 269 268 268 268 268 268 268 268 268 268 268 268 268 268 268 268 268 268 268 268 268 268
302 303 303 302 301 300 299 297 296 295 294 293 293 292 291 290 289 289 288 287 286 285 284 284 285 284 282 282 283 283 282 282 282 281 281 281 281 280 280 280 279 279 278 277 277 276 275 274 274 273 273 273 273 272 272 272 271 271 271 271 271 270 270 270 270 270 270 270 270 270 270 269 269 269 269 269 269 269 269 269 269 269 269 268 268 268
304 304 303 302 301 300 298 297 296 295 295 294 294 293 292 291 290 289 288 288 287 286 286 286 286 286 285 284 285 285 285 285 285 285 284 284 284 283 282 282 281 281 281 280 279 278 278 277 277 277 277 276 276 276 275 275 274 274 273 273 272 272 272 272 272 272 271 271 271 271 271 271 270 270 270 270 270 270 270 269 269 269 268 268 268 268
305 304 303 302 301 301 300 300 299 299 298 297 296 294 294 293 292 292 292 292 291 291 292 291 291 291 291 291 291 290 290 291 291 290 289 288 288 287 287 286 285 285 284 283 282 281 281 280 280 280 279 279 279 278 278 278 277 276 276 275 275 275 274 274 274 273 273 272 272 272 272 272 271 271 271 271 271 270 270 270 269 269 269 268 268 267
305 304 304 304 303 304 303 303 302 301 300 299 298 298 298 298 298 298 298 298 298 297 298 298 297 297 296 297 298 295 294 295 294 293 293 292 292 291 290 290 288 287 286 285 284 284 284 283 283 282 281 280 280 279 278 278 277 277 276 276 276 276 275 275 275 274 274 274 273 273 273 272 272 272 271 271 271 271 271 271 270 270 270 269 269 268
307 307 307 307 307 306 305 304 304 303 303 303 303 304 304 304 304 304 304 304 303 302 302 301 301 300 298 299 301 299 297 296 296 296 296 297 297 296 295 294 293 292 290 289 288 288 287 287 286 285 284 283 282 281 280 279 279 278 278 277 276 276 276 275 275 275 274 274 274 273 273 273 272 272 272 272 271 271 271 271 271 271 270 270 269 269
310 310 310 309 309 308 308 308 308 309 309 309 309 309 309 308 307 307 307 306 305 304 303 303 302 301 301 303 307 306 304 304 304 303 304 304 304 304 303 302 300 299 297 296 295 294 293 291 290 288 287 286 284 283 282 281 281 280 279 279 278 277 277 277 276 275 275 274 274 274 273 273 273 273 272 272 272 272 271 271 271 271 271 270 270 270
312 311 311 312 312 312 313 313 313 313 313 312 311 311 310 309 309 309 309 310 312 311 310 310 309 308 308 311 315 314 314 316 314 312 311 311 311 310 309 308 306 305 303 302 301 299 298 297 295 294 292 291 289 287 286 285 283 282 281 280 280 279 278 278 277 277 276 275 275 274 274 274 274 273 273 273 273 272 272 272 272 271 271 271 271 271
314 314 315 315 316 316 315 315 314 313 313 313 313 314 314 315 316 316 317 319 320 319 318 317 315 313 312 315 319 319 318 320 316 314 314 313 314 314 313 313 312 310 309 308 307 305 304 303 302 301 299 297 296 294 293 291 289 288 287 285 284 283 282 281 280 279 278 277 277 276 276 276 275 275 275 274 274 274 274 273 273 273 273 273 272 272
317 317 317 317 316 316 315 315 315 315 316 317 318 319 320 322 322 323 323 324 324 322 320 319 318 315 313 315 320 321 320 320 318 317 317 316 317 317 318 318 317 317 317 316 316 315 313 312 310 308 306 304 301 299 297 295 294 292 291 290 288 287 286 285 284 283 282 281 281 280 280 279 279 278 278 277 277 277 276 276 276 275 275 275 275 274
317 316 316 315 315 315 315 316 317 317 318 319 321 322 322 323 323 323 324 324 325 324 322 322 321 319 317 316 321 325 323 322 323 323 323 323 323 323 322 322 321 321 322 321 321 320 318 316 314 312 309 307 304 301 299 297 295 294 292 291 290 289 288 287 286 285 285 284 284 283 282 282 281 281 280 280 279 279 278 278 278 277 277 276 276 276
315 315 314 314 315 316 316 317 317 317 317 319 321 321 321 321 321 322 322 322 326 327 326 326 324 322 321 320 324 329 326 325 328 328 328 327 327 327 327 326 325 325 325 323 323 322 320 319 316 314 311 309 306 304 301 299 297 295 294 292 291 290 289 288 287 287 286 285 285 284 284 283 283 282 282 281 281 280 280 279 279 278 278 277 277 276
314 314 314 314 316 317 317 318 318 317 317 319 320 320 319 319 320 322 321 322 327 330 329 329 326 323 321 322 328 332 329 329 332 331 330 329 329 328 328 328 328 327 327 326 325 324 323 321 319 317 315 312 310 307 305 302 300 298 296 294 293 291 290 289 288 288 287 287 286 286 285 285 284 284 284 283 283 282 281 281 280 280 279 278 278 277
312 313 313 314 315 317 317 317 317 316 316 317 318 318 318 317 318 320 320 321 325 330 331 329 327 322 319 322 330 332 329 331 334 332 330 330 329 329 329 329 328 328 327 327 326 326 325 324 322 320 318 315 313 310 308 305 303 300 298 296 294 293 292 290 290 289 288 288 287 287 287 286 286 286 286 285 285 285 284 284 283 283 282 281 280 280
312 312 312 313 314 316 316 315 314 313 313 314 315 315 316 316 317 318 318 319 322 328 329 329 327 318 315 323 330 328 327 331 333 331 329 329 328 329 328 328 328 327 327 327 326 326 326 325 324 322 320 317 315 312 310 307 305 303 300 299 297 295 294 293 292 291 291 290 290 289 289 289 289 289 288 288 288 287 287 287 286 285 285 284 283 283
312 312 312 313 313 315 315 313 313 312 312 313 313 314 315 315 317 317 316 317 320 325 326 330 327 315 314 325 328 325 326 329 330 328 327 327 327 327 327 327 327 327 326 326 326 326 326 325 324 322 320 318 316 314 311 309 307 305 303 301 299 298 296 295 294 293 293 292 292 291 291 291 290 290 290 289 289 289 289 288 288 287 287 286 285 285
311 311 312 312 313 314 314 313 313 312 312 312 312 314 314 315 316 317 317 316 319 322 324 330 328 313 314 326 325 321 325 328 327 326 325 326 326 326 327 326 327 326 326 326 326 326 326 325 324 323 321 319 317 315 313 311 309 308 306 304 302 300 299 298 297 296 295 294 293 293 292 292 291 291 291 291 291 290 290 289 289 289 288 288 288 288
309 310 310 311 312 312 312 313 312 311 311 311 311 312 313 314 316 317 318 317 319 321 322 329 327 314 316 325 321 320 325 326 324 324 324 325 325 326 326 326 326 326 326 325 326 326 326 325 325 323 322 320 318 316 314 312 311 309 307 305 304 302 301 300 299 299 298 297 296 295 295 294 294 293 293 293 293 292 292 292 292 291 291 291 291 290
307 308 309 309 310 310 311 311 311 311 310 310 310 311 312 314 315 317 317 316 318 320 321 326 324 315 317 322 319 320 324 324 322 323 323 324 324 325 325 325 326 326 325 325 325 326 326 325 325 324 323 321 319 317 315 314 312 310 308 307 305 304 303 302 302 301 301 300 299 299 298 297 297 297 296 296 296 296 295 295 294 294 294 293 293 292
305 306 306 307 307 308 308 309 309 309 309 309 309 310 312 314 316 317 316 315 316 317 318 321 321 317 317 318 317 320 323 322 322 322 322 323 323 324 324 325 325 325 325 325 325 325 326 326 325 324 323 322 320 318 317 315 313 311 310 308 306 305 305 305 304 304 304 303 303 302 301 301 300 300 300 299 299 298 297 297 296 296 296 295 294 294
302 303 304 305 305 306 307 308 308 309 308 308 308 309 311 314 316 316 315 314 314 316 317 317 319 319 317 315 317 321 322 320 320 321 321 321 322 323 323 324 324 324 324 325 325 325 325 326 326 324 323 322 320 319 317 316 314 312 310 309 308 307 307 307 307 307 306 306 306 305 304 304 303 302 302 301 300 300 299 299 298 298 297 296 295 294
300 300 301 301 301 302 304 305 307 308 307 307 307 307 310 313 315 315 314 312 313 316 316 315 319 321 317 314 317 320 320 319 319 319 320 320 321 322 323 323 324 324 324 325 325 325 325 325 325 324 323 322 320 319 318 316 315 313 312 311 310 309 308 308 308 308 308 308 308 308 307 306 305 304 303 303 302 301 301 300 300 299 298 298 297 296
299 300 301 301 300 299 300 301 303 305 305 305 305 305 308 311 314 314 313 311 312 316 317 314 318 321 317 314 317 320 319 319 319 319 319 320 321 321 322 323 323 324 325 325 325 325 325 325 325 324 322 321 320 319 318 317 316 315 313 312 311 310 309 309 309 309 310 310 310 309 308 307 306 305 304 303 303 302 302 301 301 300 299 298 298 297
300 300 301 302 301 301 300 301 303 304 304 304 303 303 306 310 312 312 311 310 311 315 316 314 317 320 316 314 317 318 318 319 319 318 319 320 320 321 322 323 323 324 324 324 324 324 324 324 324 323 322 321 320 319 318 317 317 316 315 313 312 311 310 310 310 311 311 311 310 310 309 308 307 306 305 304 304 303 303 302 302 301 300 299 298 297
301 300 301 302 302 301 301 302 304 304 304 303 301 302 305 308 310 311 309 309 310 314 315 315 317 318 315 315 317 317 317 318 318 318 319 319 320 321 322 322 323 323 324 324 324 323 323 324 324 323 322 321 320 319 318 317 317 316 315 314 313 312 312 311 311 311 311 311 311 311 310 309 308 307 306 305 305 305 304 303 302 301 300 299 298 298
302 301 301 303 303 301 301 303 304 305 304 302 301 302 304 307 310 310 309 308 310 313 314 315 317 316 315 316 317 316 317 318 318 318 318 319 320 321 322 322 322 323 323 323 323 323 323 324 324 323 322 321 320 319 318 318 317 316 316 315 315 314 313 313 312 312 312 312 312 311 311 310 309 308 307 306 306 305 305 304 302 301 300 300 299 299
304 303 302 303 304 301 301 304 305 306 305 303 301 303 306 309 311 311 309 309 310 312 313 315 317 316 315 317 318 317 317 318 318 318 318 318 320 321 321 321 322 322 322 322 322 323 323 323 323 322 321 320 319 319 318 318 317 317 317 316 316 315 314 313 313 312 312 312 312 312 311 310 309 308 308 307 307 307 306 305 303 302 301 301 300 300
306 305 304 305 304 302 302 304 306 307 306 303 302 304 307 310 312 310 309 309 310 311 312 315 316 315 315 316 317 317 317 317 317 317 317 318 320 321 320 321 321 321 321 322 322 322 323 323 322 321 320 320 319 319 318 318 318 318 317 317 316 315 314 314 313 313 313 312 312 312 311 311 310 309 309 308 308 308 307 305 304 303 303 302 302 301
308 307 306 306 306 304 303 305 307 307 305 303 302 304 308 310 311 310 309 309 310 310 312 314 314 314 315 316 317 317 316 317 317 317 317 318 319 320 319 320 320 321 321 321 322 322 322 322 321 320 320 319 319 319 318 318 318 318 317 317 316 315 314 314 313 313 313 313 313 313 312 312 311 310 310 309 309 309 308 306 305 305 304 304 304 303
309 309 308 308 308 307 306 307 308 307 304 302 301 304 308 310 310 309 309 310 309 309 312 314 313 313 315 316 315 316 316 316 317 316 316 318 319 319 319 319 320 320 321 321 321 321 321 321 321 320 319 319 319 319 319 318 318 318 317 316 316 315 314 314 313 313 313 313 313 313 312 312 311 311 310 310 310 309 308 307 307 307 306 306 305 305
311 311 311 310 311 311 309 310 310 308 305 302 301 305 310 311 310 310 310 310 308 309 312 313 312 313 314 315 315 315 315 316 316 315 316 317 318 318 318 319 319 320 320 320 320 321 321 321 320 320 319 319 319 319 319 319 318 318 317 316 316 316 315 314 314 314 314 314 314 313 313 312 312 311 311 311 310 310 309 308 308 308 308 307 307 306
313 313 312 312 313 313 312 312 311 309 307 304 303 308 311 311 310 310 312 310 308 309 312 313 312 313 314 314 315 315 316 316 317 315 316 317 318 318 319 319 319 320 320 320 320 320 321 321 320 320 319 319 319 319 319 319 318 318 317 317 316 316 315 315 314 314 314 314 314 313 313 313 312 312 311 311 311 310 310 310 310 310 309 309 308 307
314 314 313 313 315 314 314 313 311 310 308 304 306 311 313 312 311 311 313 311 308 309 312 312 311 312 313 314 315 315 316 317 317 316 316 318 318 318 319 319 319 319 319 319 320 320 320 320 320 319 319 319 319 319 319 319 319 318 318 317 316 316 315 315 315 314 314 314 314 314 314 313 313 312 312 312 312 312 311 312 312 312 311 310 309 309
314 314 313 314 315 315 315 314 311 311 308 303 306 311 311 310 309 310 312 311 308 309 312 311 311 313 313 314 315 315 316 318 318 317 317 318 318 318 318 318 318 319 319 319 320 320 319 320 319 319 319 319 319 319 320 319 319 318 318 317 316 316 315 315 315 315 315 315 314 314 314 314 313 313 313 313 313 313 313 313 313 313 313 312 311 310
313 313 313 314 315 315 315 313 311 311 307 304 307 310 309 309 309 309 311 311 308 309 311 311 312 313 313 314 315 315 316 318 318 317 317 318 318 318 318 318 318 318 319 319 319 319 319 319 319 318 319 319 319 320 320 320 319 318 318 317 316 316 316 316 316 315 315 315 315 314 314 314 313 313 313 314 314 314 314 315 315 315 314 313 312 311
312 311 312 314 314 315 315 313 312 311 308 306 310 312 310 310 310 309 311 312 310 310 311 311 312 313 313 315 315 315 316 317 317 317 317 317 317 317 317 317 318 318 318 319 319 319 319 319 318 318 319 319 320 320 320 320 319 318 318 317 317 317 316 316 316 316 316 315 315 315 315 314 314 314 314 315 315 315 316 316 316 316 315 314 313 312
311 310 311 313 314 314 313 312 312 311 308 309 312 313 311 311 311 311 312 312 311 311 311 311 312 313 314 315 315 316 316 317 317 317 316 316 316 316 317 317 318 318 318 318 318 318 319 319 318 318 319 319 320 320 320 320 319 319 318 318 317 317 317 317 316 316 316 316 315 315 315 315 315 315 315 316 316 317 317 317 317 317 316 315 314 313
310 309 311 313 315 314 312 311 311 310 309 311 313 312 312 311 311 312 313 313 313 313 312 313 313 313 314 315 315 316 316 317 317 317 316 316 316 316 317 317 318 318 318 318 318 318 319 319 318 319 319 320 320 320 320 320 319 319 319 318 317 317 317 317 316 316 316 316 315 315 315 315 315 316 316 317 317 317 318 318 318 318 317 316 315 314
309 309 312 316 317 315 313 313 311 309 310 312 312 312 312 312 312 313 314 314 314 313 313 314 314 314 315 315 316 316 316 316 316 316 316 316 316 316 317 317 318 318 318 318 318 318 319 318 318 319 320 320 320 321 321 320 319 319 319 318 318 318 317 317 317 316 316 316 316 316 316 316 316 316 317 317 318 318 318 319 318 318 318 317 316 315
309 310 314 319 319 315 314 315 311 309 312 314 314 313 313 313 314 315 315 315 314 314 314 315 314 314 315 315 316 316 316 316 316 316 316 316 316 316 317 317 317 318 318 318 318 318 318 318 318 319 320 320 320 321 321 320 319 319 319 318 318 318 318 317 317 317 317 316 316 316 316 316 316 316 317 318 318 319 319 319 319 319 318 318 317 316
309 310 316 321 319 315 316 316 312 311 315 316 316 315 314 314 315 315 315 315 314 314 314 314 314 314 315 315 315 315 316 315 315 315 315 316 316 317 317 317 317 318 318 318 318 318 318 318 318 319 320 320 321 321 320 319 319 319 319 319 318 318 318 317 317 317 317 317 316 316 316 316 316 317 317 318 319 320 320 320 320 319 319 318 317 316
308 311 317 320 316 314 316 315 311 311 315 315 314 314 313 314 314 314 314 314 313 313 314 314 314 314 314 314 315 315 315 315 315 315 316 316 316 317 317 317 317 317 318 318 318 318 318 318 319 320 320 320 321 320 320 319 319 319 319 319 319 318 318 317 317 317 317 317 316 316 316 316 317 317 318 319 320 320 321 320 320 320 320 319 318 317
307 312 317 317 313 312 314 312 309 310 314 314 313 312 313 313 313 313 313 313 313 313 313 313 313 313 313 314 314 314 314 315 315 315 316 316 316 316 316 317 317 317 317 318 318 318 318 318 319 320 320 320 320 320 319 319 318 319 319 319 319 318 318 317 317 317 317 317 317 316 316 317 317 318 319 320 320 321 321 321 321 320 320 320 319 317
308 314 316 313 311 311 312 310 308 310 313 313 312 311 312 313 313 312 312 312 312 312 312 312 312 312 313 313 314 314 314 315 315 315 315 315 316 316 316 316 317 317 317 317 318 318 318 318 319 320 320 320 320 319 319 318 318 319 319 319 319 318 318 317 317 317 317 317 317 317 317 317 318 318 319 320 321 321 322 321 321 320 320 320 319 318
311 316 314 310 310 312 312 310 309 311 313 312 311 311 312 313 312 312 311 311 311 312 311 311 312 312 312 313 313 314 314 314 314 314 314 315 315 315 316 316 316 317 317 317 317 317 318 319 319 320 320 320 319 318 318 318 318 319 319 319 318 318 318 317 317 317 317 317 317 317 317 318 318 319 320 321 322 322 322 321 321 320 320 320 319 319
315 315 311 309 311 312 311 309 309 311 313 311 309 310 311 311 311 311 310 310 310 310 310 311 311 311 312 312 313 313 313 313 313 313 314 314 315 315 315 316 316 316 317 317 317 317 318 319 319 319 319 319 318 318 318 318 318 318 319 318 318 318 318 317 317 317 317 318 317 317 317 318 319 320 321 322 322 322 322 321 320 320 320 320 319 319
315 312 309 310 311 311 310 308 308 310 311 309 308 309 310 309 309 309 309 309 309 309 309 310 310 310 311 312 312 312 312 312 312 313 313 314 314 315 315 315 316 316 316 316 317 317 318 318 319 319 319 318 317 317 318 318 318 318 318 318 318 318 318 317 317 317 318 318 317 317 317 318 319 320 322 323 323 323 322 321 321 320 321 320 320 321
312 309 309 310 310 310 309 308 309 310 310 309 308 308 308 308 308 308 308 308 308 308 308 309 309 310 311 311 311 311 311 311 312 312 313 314 314 314 315 315 315 316 316 316 317 317 318 318 318 318 318 317 317 317 317 318 318 318 318 318 318 318 318 317 317 317 318 318 317 317 318 319 320 321 322 323 323 323 323 322 322 321 321 321 321 322